Location: Aurora Center
(43.5271°N, 98.5894°W)
Time: 00:56:47
(UTC-05:00)

Envisat - Pass Details

Date: 20 June 2024
Orbit: 762 x 764 km, 98.3° (Epoch: 12 July)

Event Time Altitude Azimuth Distance (km) Brightness Sun altitude
Rises 03:56:43 0° 25° (NNE) 3,235 8.0 -15.7°
Reaches altitude 10° 03:59:25 10° 38° (NE) 2,303 6.9 -15.4°
Maximum altitude 04:03:37 26° 94° (E) 1,479 4.8 -15.0°
Drops below altitude 10° 04:07:47 10° 150° (SSE) 2,289 5.2 -14.5°
Enters shadow 04:09:38 - 160° (SSE) 2,923 5.7 -14.3°
